CAPE
0 0 0 0 58 36 22 37 75 42 394 504 823 751 691 1167 625 294 506 166 127 86 572 425 339 225 202 351 491 519 1094 787 754 152 17 229 226 713 464 512 767 1315 2361 1825
0 0 0 0 0 0 12 50 66 17 324 315 459 591 725 962 912 599 410 431 319 138 319 755 506 390 352 554 563 842 903 1045 829 486 975 536 556 552 808 752 1060 1362 1779 1849
0 0 0 0 0 0 3 30 62 2 0 20 297 464 561 720 881 769 509 547 399 248 466 604 484 587 452 786 807 700 1275 1216 1186 1799 1442 1581 1743 536 1476 911 1189 1722 1886 1665
0 0 0 0 0 0 16 8 0 0 0 251 764 348 128 682 860 919 917 721 633 474 353 376 409 490 522 798 1044 885 1208 1506 1252 1345 1852 1622 1026 554 166 913 730 1907 1649 1756
0 0 0 0 0 0 0 0 0 0 4 86 126 458 59 273 421 849 983 1013 834 556 311 430 596 604 540 666 1040 996 1248 1598 1862 2066 1894 1454 1731 1587 365 598 2486 2549 2486 1780
0 0 0 0 0 0 0 0 0 3 28 15 110 278 179 296 192 531 645 844 925 697 279 466 662 682 677 659 872 1084 1253 1824 1999 1823 1908 1902 1999 1613 1224 1534 1496 473 1305 1451
0 0 0 0 0 0 0 0 44 142 156 85 186 133 104 65 22 139 425 485 770 863 456 451 604 633 872 818 839 1115 1558 2003 1751 1809 1810 1702 1734 1830 1904 1899 747 1606 598 690
0 0 0 0 0 0 0 0 48 63 82 72 79 75 103 74 13 106 141 116 366 781 700 572 653 706 911 1097 914 1069 2144 2233 1770 1699 2098 2703 1686 1346 1310 1346 1020 608 1021 838
0 0 0 0 0 0 2 0 2 22 26 46 36 85 83 90 81 179 236 202 249 733 633 541 693 920 1052 935 1075 1195 2205 2562 2036 1789 2267 2823 2695 1928 1935 2328 1850 1736 2142 1292
0 0 0 0 0 0 0 3 3 9 3 5 35 75 241 132 190 328 383 365 408 514 620 614 727 1111 975 1069 1040 1263 1531 2170 2039 1718 1970 1996 2234 2194 2240 1918 1833 2171 2264 2267
0 0 1 0 0 0 0 0 0 10 48 52 56 204 14 55 237 606 544 676 584 367 476 708 846 1071 995 1141 914 1231 1482 2145 2013 1984 2201 2598 2317 2203 2206 1864 2135 2204 2144 2195
3 1 9 10 0 0 0 0 0 8 4 8 28 31 26 56 311 504 836 950 588 200 411 800 806 1046 1291 1477 1455 1426 1448 1692 1074 1878 2638 2344 2283 2829 1972 1893 1798 2068 2537 2888
0 9 14 37 37 3 0 0 13 17 30 80 91 115 126 47 38 539 867 1033 758 803 1096 1111 1068 1268 1476 1836 1665 1033 2564 2412 2099 2358 1993 1903 1972 2121 2148 2087 2484 2072 2736 2489
0 0 29 57 85 31 0 0 0 9 60 44 62 119 78 102 105 698 855 1161 1049 1390 1527 1397 1319 1407 1657 2222 1869 2182 2371 2457 2270 2617 2608 3050 2764 2791 2283 2535 3181 2631 3371 2869
0 0 2 14 11 24 34 2 0 4 32 46 46 91 161 184 161 703 1096 941 1210 1729 1760 1706 1582 1692 1881 2065 2280 2207 2067 2395 2241 2597 2586 3139 3412 3272 3007 2974 3087 3259 2692 2967
27 70 20 27 33 52 37 53 13 1 38 30 32 12 13 195 262 913 1377 981 1306 1674 1601 1856 1826 2139 2241 2291 2349 2264 2649 2077 2556 2710 3006 3163 3504 3455 3420 3101 2750 3197 3169 2484
342 344 282 43 73 138 118 61 45 22 23 31 78 107 215 217 303 1074 1544 1015 1341 1442 1486 1670 2094 2321 2283 2319 2455 2422 2456 2432 2626 2539 2876 2812 3374 2891 2846 2791 2735 3101 2675 2232
386 606 439 293 180 228 13 93 88 52 18 54 82 80 105 283 334 1083 1466 1060 1334 1489 1451 1512 1881 2306 2373 2378 2544 2803 2700 3001 2860 2844 2613 2742 2767 2741 2827 2512 2586 2538 2245 2056
490 651 582 422 270 139 167 135 92 204 121 55 68 40 93 19 224 1031 1506 944 1275 1430 1532 1425 1216 1278 1343 1778 2516 2864 2826 2890 2869 2712 2574 2652 2727 3215 2986 2669 2399 2619 2389 2313
366 519 678 631 256 254 172 157 166 332 297 287 244 40 86 220 131 562 1574 884 1070 1307 1586 1226 1032 1118 1335 1888 2520 2902 3068 3207 3166 3081 2982 2859 2825 2701 2501 2235 2307 2284 1760 1794
377 549 555 496 496 323 355 254 165 352 349 358 390 534 362 321 376 987 1307 1023 1099 1463 1656 1356 1636 1719 2117 2387 2576 2688 2815 2680 2493 2411 2358 2243 1956 1626 1212 946 765 680 881 1337
312 352 438 811 381 482 298 150 339 743 784 562 668 633 993 1076 673 1156 447 1060 1240 1658 1753 1973 1959 2376 2381 2655 2637 2189 1983 1807 1881 1797 1782 1852 1835 1206 1132 1300 1341 1223 1420 1182
343 356 8 403 312 433 137 194 361 369 843 871 760 568 582 565 863 801 244 1438 1495 1757 2017 1942 2108 2434 2885 2756 2213 1586 2783 2240 1961 1908 1799 1868 1901 1720 1347 1343 1908 1149 1546 847
587 656 680 537 527 739 681 379 525 297 479 697 537 601 728 489 929 934 1713 1870 1777 2045 2330 2131 2397 2691 3041 2588 2107 2121 2498 2013 1677 1644 1708 1669 1643 1748 1524 1147 774 662 112 37
510 493 589 440 406 265 485 311 186 194 80 112 121 446 600 719 687 1316 1703 2006 2354 2713 2445 2874 2901 3111 2934 2398 2053 1575 1807 1648 1266 1248 1221 1133 987 1589 956 1541 319 128 233 64
100 312 573 461 372 316 67 68 202 162 13 2 0 119 740 798 798 1267 2086 2401 2822 2955 3021 3534 3520 3206 2226 1891 1273 1284 1239 1079 937 926 877 576 514 296 265 157 169 0 0 0
CIN
-0 -0 -0 -0 -0 -0 -0 -0 -0 -0 -1 -7 -0 -0 -1 -6 -21 -34 -9 -18 -5 -0 -7 -0 -0 -21 -69 -17 -0 -0 -1 -0 -0 -44 -56 -4 -1 -1 -0 -1 -13 -0 -0 -0
-0 -0 -0 -0 -0 -0 -0 -0 -0 -0 -5 -9 -0 -0 -0 -0 -11 -10 -42 -1 -0 -9 -12 -3 -0 -2 -2 -0 -0 -0 -0 -0 -0 -7 -1 -1 -8 -0 -0 -0 -0 -0 -0 -0
-0 -0 -0 -0 -0 -0 -0 -0 -0 -0 -0 -11 -3 -2 -0 -0 -0 -3 -13 -1 -0 -7 -0 -5 -0 -0 -1 -0 -0 -0 -0 -0 -0 -0 -5 -0 -2 -140 -23 -9 -0 -0 -0 -0
-0 -0 -0 -0 -0 -0 -0 -2 -0 -0 -0 -2 -63 -0 -149 -0 -0 -0 -0 -11 -0 -0 -2 -0 -0 -0 -0 -0 -0 -0 -0 -0 -0 -0 -0 -0 -0 -0 -12 -0 -0 -3 -0 -0
-0 -0 -0 -0 -0 -0 -0 -0 -0 -0 -0 -1 -0 -0 -145 -0 -0 -0 -0 -0 -4 -6 -5 -0 -0 -0 -0 -0 -0 -0 -0 -0 -0 -0 -4 -0 -1 -43 -0 -1 -5 -0 -0 -0
-0 -0 -0 -0 -0 -0 -0 -0 -0 -0 -0 -0 -1 -0 -42 -1 -0 -0 -0 -0 -0 -9 -62 -0 -0 -1 -0 -0 -0 -0 -0 -0 -0 -0 -0 -0 -0 -2 -67 -1 -0 -0 -0 -0
-0 -0 -0 -0 -0 -0 -0 -0 -0 -0 -0 -15 -1 -0 -0 -33 -2 -3 -0 -0 -0 -0 -24 -1 -0 -0 -0 -0 -0 -0 -0 -0 -0 -0 -0 -0 -0 -0 -0 -6 -0 -0 -0 -0
-0 -0 -0 -0 -0 -0 -0 -0 -0 -1 -0 -2 -0 -0 -4 -5 -5 -12 -10 -6 -1 -0 -0 -0 -0 -0 -0 -1 -0 -0 -0 -0 -0 -0 -0 -0 -0 -0 -0 -3 -1 -0 -9 -0
-0 -0 -0 -0 -0 -0 -0 -0 -0 -0 -0 -0 -1 -0 -0 -12 -1 -0 -5 -16 -13 -0 -0 -0 -0 -1 -11 -2 -0 -0 -0 -0 -0 -0 -0 -0 -0 -1 -1 -10 -3 -1 -0 -3
-0 -0 -0 -0 -0 -0 -0 -0 -0 -0 -0 -0 -4 -0 -7 -19 -0 -5 -0 -3 -10 -0 -0 -0 -0 -2 -0 -9 -10 -0 -0 -0 -0 -0 -0 -0 -0 -0 -0 -0 -0 -0 -6 -3
-0 -0 -0 -0 -0 -0 -0 -0 -0 -0 -0 -0 -0 -15 -149 -2 -0 -0 -1 -0 -0 -0 -0 -0 -1 -0 -0 -0 -8 -0 -0 -1 -25 -0 -0 -0 -0 -0 -0 -0 -0 -0 -0 -0
-0 -0 -0 -0 -0 -0 -0 -0 -0 -0 -0 -1 -0 -0 -33 -0 -0 -0 -0 -0 -0 -8 -0 -0 -1 -0 -0 -0 -12 -14 -29 -25 -35 -0 -0 -1 -0 -2 -0 -0 -1 -0 -0 -1
-0 -0 -0 -0 -0 -0 -0 -0 -0 -0 -0 -0 -0 -3 -4 -6 -6 -0 -0 -1 -25 -25 -1 -0 -1 -0 -0 -0 -23 -28 -0 -0 -0 -0 -0 -0 -0 -0 -0 -0 -1 -0 -0 -0
-0 -0 -0 -0 -0 -2 -0 -0 -0 -0 -0 -0 -0 -7 -3 -4 -3 -7 -1 -12 -25 -25 -15 -2 -0 -0 -0 -0 -0 -0 -4 -2 -1 -1 -0 -0 -0 -0 -0 -0 -0 -0 -0 -1
-0 -0 -0 -0 -0 -4 -1 -0 -0 -0 -0 -0 -2 -3 -2 -3 -1 -2 -6 -21 -28 -17 -10 -4 -0 -0 -0 -0 -1 -20 -30 -26 -14 -0 -2 -0 -0 -0 -0 -0 -0 -2 -0 -0
-0 -8 -0 -0 -2 -0 -1 -1 -0 -10 -0 -0 -0 -19 -43 -4 -3 -3 -12 -20 -27 -12 -9 -4 -0 -0 -0 -1 -6 -9 -1 -23 -1 -0 -0 -0 -0 -0 -0 -0 -0 -0 -0 -0
-0 -0 -0 -0 -0 -0 -0 -0 -1 -0 -3 -0 -0 -0 -14 -1 -0 -5 -15 -31 -26 -20 -16 -7 -0 -0 -0 -0 -3 -2 -1 -0 -1 -0 -0 -0 -0 -0 -0 -0 -0 -0 -0 -16
-0 -0 -0 -0 -0 -0 -4 -0 -1 -1 -0 -1 -0 -1 -13 -2 -3 -0 -11 -23 -29 -31 -24 -25 -1 -0 -0 -0 -0 -0 -0 -0 -0 -0 -0 -0 -0 -0 -0 -0 -0 -0 -0 -0
-0 -0 -0 -0 -0 -5 -0 -3 -6 -0 -1 -0 -0 -2 -50 -161 -13 -1 -2 -21 -23 -30 -20 -24 -20 -12 -0 -0 -0 -4 -1 -4 -6 -6 -3 -0 -0 -0 -1 -0 -1 -1 -2 -1
-0 -1 -0 -0 -0 -0 -0 -13 -0 -0 -0 -28 -14 -22 -0 -0 -0 -0 -5 -11 -26 -30 -22 -19 -36 -28 -15 -17 -20 -13 -4 -2 -0 -0 -0 -0 -0 -0 -0 -0 -0 -0 -0 -0
-0 -5 -14 -0 -0 -0 -3 -0 -22 -1 -2 -56 -78 -52 -5 -1 -1 -9 -0 -2 -22 -34 -32 -38 -26 -20 -14 -18 -17 -13 -9 -4 -0 -0 -0 -0 -0 -0 -0 -0 -0 -0 -0 -0
-0 -75 -1 -0 -0 -0 -157 -46 -3 -39 -51 -57 -111 -132 -56 -29 -17 -3 -10 -0 -15 -33 -27 -21 -16 -7 -13 -12 -14 -21 -21 -18 -10 -3 -0 -0 -0 -0 -0 -0 -0 -0 -0 -0
-0 -56 -10 -1 -0 -33 -91 -58 -1 -96 -25 -42 -97 -151 -137 -78 -39 -7 -64 -0 -1 -14 -32 -14 -12 -17 -1 -2 -14 -28 -0 -6 -2 -0 -0 -0 -0 -0 -0 -0 -0 -0 -0 -0
-4 -3 -0 -0 -20 -43 -127 -3 -12 -50 -14 -67 -165 -186 -113 -96 -34 -12 -1 -0 -0 -0 -23 -5 -6 -1 -0 -7 -19 -15 -11 -17 -12 -2 -0 -0 -0 -2 -0 -0 -0 -2 -62 -101
-0 -2 -0 -0 -5 -46 -36 -6 -53 -93 -200 -205 -209 -190 -185 -89 -59 -14 -1 -0 -0 -0 -6 -0 -0 -0 -3 -24 -21 -29 -41 -48 -46 -27 -10 -2 -0 -7 -0 -0 -27 -54 -36 -15
-0 -0 -0 -0 -9 -51 -17 -8 -0 -93 -211 -62 -0 -196 -128 -119 -45 -32 -0 -0 -0 -0 -0 -0 -0 -0 -36 -41 -64 -69 -77 -76 -58 -46 -26 -27 -8 -31 -46 -70 -86 -0 -0 -0
Wind_Speed
17 15 15 16 14 9 8 11 3 5 5 6 9 9 11 16 17 13 16 17 17 16 14 12 12 11 14 13 12 11 9 10 9 6 6 6 8 5 4 6 7 8 3 4
16 16 17 16 9 8 12 13 8 4 5 8 12 11 11 16 17 19 21 19 17 17 12 15 14 15 14 14 13 13 12 12 9 10 7 7 5 7 8 8 8 5 4 3
18 14 13 18 8 14 14 14 7 6 9 12 12 17 15 15 17 18 18 17 17 17 21 19 17 17 15 16 15 14 14 14 11 8 7 6 5 6 2 6 8 8 9 7
16 15 15 11 12 16 17 6 5 11 13 2 21 8 14 15 17 19 21 19 19 18 17 18 17 17 16 16 15 16 15 15 12 10 7 8 7 6 5 7 8 6 8 7
14 14 18 15 15 17 15 5 8 11 14 17 13 9 5 9 12 14 20 23 22 19 16 18 17 17 17 16 16 16 16 14 13 11 10 8 10 3 6 5 11 5 6 4
18 10 10 15 16 16 7 8 12 14 13 12 10 10 13 11 3 9 15 18 22 23 18 20 18 18 16 17 16 17 16 15 14 12 12 12 9 7 5 6 8 8 9 9
16 19 16 11 16 18 16 15 14 12 11 9 9 4 3 7 10 5 9 13 18 22 26 22 19 17 17 19 17 17 17 15 15 15 14 12 10 7 6 7 6 6 8 8
13 17 22 16 20 16 13 19 15 8 9 4 11 6 4 6 5 5 5 5 11 19 20 22 23 20 18 14 17 17 18 16 16 15 13 11 10 8 7 8 7 8 4 6
13 11 6 16 18 20 18 17 19 19 15 12 9 7 7 9 3 11 7 5 7 16 18 20 22 18 19 18 18 16 16 15 15 15 12 11 11 11 7 7 9 7 7 3
18 12 5 11 16 20 22 13 12 12 12 12 9 10 10 7 2 10 10 9 7 13 18 20 19 21 20 19 18 17 17 16 16 15 13 11 12 12 10 6 7 7 4 5
17 17 15 10 15 18 17 19 15 19 13 9 11 8 4 8 2 10 11 9 9 10 15 17 18 21 20 20 20 17 17 16 7 15 13 11 13 13 12 11 11 10 9 7
14 16 16 21 14 18 22 22 21 13 15 11 14 6 14 10 4 5 9 8 5 5 13 15 18 20 18 15 14 15 12 16 16 14 12 12 13 10 14 13 12 11 10 10
13 14 16 20 16 14 20 24 22 21 20 17 12 2 10 7 4 6 8 9 7 7 11 13 16 17 17 16 16 17 16 17 14 13 13 15 15 14 13 12 11 11 10 10
11 18 14 16 17 14 22 19 19 21 15 15 14 8 4 5 10 11 7 11 11 10 12 13 13 14 14 14 14 13 9 10 11 10 11 13 12 13 14 13 11 11 9 10
17 20 21 23 24 21 18 20 23 23 20 18 14 13 11 20 13 14 11 12 12 13 13 13 14 14 14 14 14 14 14 11 11 11 8 10 10 10 9 9 8 7 10 11
12 17 19 23 26 20 20 21 26 25 22 17 18 11 3 7 11 14 14 14 14 14 14 13 13 15 15 15 15 15 15 16 13 12 11 9 9 9 10 10 10 9 9 11
16 16 18 21 22 22 22 22 17 18 16 15 17 14 18 16 11 15 16 16 15 15 14 14 13 13 13 15 14 14 13 12 12 12 11 10 9 11 9 9 9 10 9 5
18 18 15 17 18 26 19 20 20 21 19 17 18 14 18 3 10 14 17 17 17 16 15 14 13 13 13 14 14 12 13 11 11 12 11 10 10 10 9 9 9 9 9 11
20 13 15 17 17 20 23 24 9 17 13 12 15 16 13 7 16 16 18 19 17 18 15 14 13 12 12 13 12 11 11 11 11 11 11 10 10 8 5 6 7 7 6 7
24 17 13 17 20 28 18 24 20 21 10 6 14 14 17 17 8 9 20 21 20 19 16 15 15 13 13 13 13 12 11 10 10 9 9 8 8 9 9 8 8 7 8 8
16 18 17 19 15 17 15 3 10 18 8 8 4 6 11 8 1 12 22 24 22 19 19 18 16 15 15 15 13 12 11 10 8 8 7 7 7 6 6 5 4 5 6 7
13 5 7 18 16 20 17 10 17 3 11 11 13 9 6 9 4 10 8 23 24 22 21 20 16 15 15 14 12 11 10 9 8 8 9 9 8 7 8 6 6 7 6 7
15 10 6 8 9 12 5 11 4 12 14 7 11 9 5 6 9 10 19 20 21 21 20 18 16 16 14 13 10 10 8 9 9 9 8 8 8 7 5 5 6 7 10 10
4 9 7 15 7 12 21 3 10 11 9 7 8 8 10 8 10 8 12 18 18 18 18 17 18 17 14 11 10 9 8 7 7 7 7 7 7 7 7 7 8 9 7 6
8 3 11 14 10 4 13 11 12 8 8 12 7 10 7 8 7 9 10 16 17 17 17 17 16 15 15 12 10 8 7 6 6 5 6 6 7 7 7 8 7 7 5 4
12 10 7 10 3 6 3 21 11 5 9 9 11 9 4 6 2 10 7 14 16 17 16 16 16 16 15 13 11 9 8 6 5 5 5 5 5 5 5 6 5 7 7 6
Wind_Direction
210 238 238 244 236 284 331 281 298 75 92 254 239 248 198 170 191 203 204 217 217 193 151 182 168 166 155 154 159 157 136 145 162 130 165 178 188 136 207 212 170 205 243 185
242 224 251 255 272 293 268 272 261 157 193 244 256 248 217 177 202 195 204 212 216 186 176 169 204 169 165 162 165 169 157 164 191 163 172 167 192 205 205 187 181 212 221 214
236 233 212 247 241 236 243 263 280 317 284 238 263 250 223 200 190 196 201 210 208 213 181 186 185 175 177 167 171 175 171 171 210 180 140 190 215 6 187 180 175 198 214 198
244 244 246 250 248 244 252 16 356 287 270 229 240 275 246 164 192 197 192 203 216 202 190 192 181 182 181 170 173 169 180 179 193 201 169 208 213 189 177 180 180 179 212 212
241 234 241 234 247 223 257 67 274 280 276 276 259 277 152 243 185 196 203 196 206 207 205 183 181 186 185 172 173 168 177 181 191 197 188 195 233 333 206 193 130 172 177 229
256 255 243 253 226 252 230 268 245 246 254 265 200 239 109 239 203 179 185 199 198 188 206 211 182 176 185 173 177 167 175 182 190 186 194 209 229 227 307 199 158 196 190 187
220 241 237 219 250 224 223 236 238 225 231 320 167 246 173 186 202 180 190 187 196 187 185 205 181 190 184 175 182 168 172 184 191 185 192 203 227 225 196 267 219 238 212 196
224 213 212 219 234 217 219 237 255 274 270 347 353 268 125 320 59 158 187 200 185 188 190 194 184 191 171 179 183 181 167 184 188 191 194 188 209 218 236 209 261 231 255 237
278 238 231 208 212 246 209 215 260 288 284 263 275 202 91 44 321 161 169 143 197 180 188 192 178 162 177 193 184 188 166 183 191 196 192 189 199 233 214 212 233 226 264 252
259 264 192 196 213 219 245 252 225 232 264 278 256 224 97 161 210 160 166 168 169 184 188 184 177 170 188 187 189 189 174 185 192 200 190 207 193 211 234 231 235 266 279 280
237 258 269 191 207 227 207 240 254 276 267 303 242 97 102 310 57 164 175 130 169 187 188 186 182 173 188 176 195 181 180 181 194 201 187 213 207 203 209 222 212 222 238 244
231 241 245 255 216 219 244 217 232 241 235 265 302 308 157 244 155 180 129 122 156 180 180 188 185 174 174 178 178 186 166 186 195 205 193 199 218 206 201 214 225 212 221 194
279 240 252 255 237 210 217 238 230 229 246 262 257 119 162 158 191 173 146 137 135 167 173 181 183 175 176 173 178 191 185 193 200 196 194 211 207 213 224 216 214 230 220 218
301 272 242 253 252 222 202 226 247 257 254 252 236 170 146 249 192 157 167 144 155 168 161 177 179 172 177 180 176 184 170 180 191 194 196 210 211 210 219 218 228 229 213 253
253 257 266 264 266 264 260 201 224 237 246 265 260 240 190 189 183 160 160 160 159 158 169 166 182 167 180 181 173 185 183 182 202 188 215 221 205 218 229 239 238 257 222 226
276 276 263 258 265 263 256 259 209 221 232 245 259 228 198 352 129 151 162 165 165 165 165 168 171 166 179 177 183 183 183 184 197 191 195 205 207 208 218 222 225 235 231 237
290 283 267 247 252 256 255 244 241 254 246 233 252 260 155 172 175 164 167 172 166 166 161 166 159 167 180 174 182 183 188 183 189 191 198 194 195 207 212 218 220 227 236 255
247 255 264 262 251 249 249 270 244 246 246 236 246 266 328 156 175 163 171 175 165 164 162 160 164 163 171 170 174 176 180 183 183 193 191 188 194 206 213 228 234 232 235 239
237 243 266 249 248 246 254 241 233 248 254 272 254 246 151 43 252 157 174 174 166 159 158 163 154 159 167 145 146 159 164 173 182 192 202 205 211 213 209 221 233 249 250 249
243 218 232 261 237 247 234 243 244 226 241 331 300 249 255 165 200 182 173 170 163 159 158 148 147 141 135 142 149 154 158 167 179 185 191 194 194 202 202 217 213 217 229 242
239 213 186 238 254 257 287 177 113 264 193 85 32 338 287 212 262 327 174 167 158 157 155 146 149 147 149 150 151 155 156 167 173 169 171 172 180 197 208 218 246 250 257 279
272 134 240 218 219 244 33 2 261 13 101 101 73 39 7 339 303 171 140 149 154 160 150 157 154 146 149 149 152 152 163 154 156 162 169 178 183 216 173 202 219 230 253 265
265 152 183 292 220 256 307 211 326 62 316 73 78 53 2 8 274 241 187 170 161 160 156 163 149 151 149 152 150 155 142 158 170 175 184 192 206 213 246 247 244 246 234 240
302 324 259 156 229 320 318 216 54 35 343 56 42 53 351 11 302 231 176 168 155 158 167 159 151 157 150 152 156 153 154 171 185 196 212 219 223 218 240 244 241 242 270 288
295 352 262 258 212 3 317 46 40 32 27 15 351 65 6 339 340 293 200 170 161 162 171 155 161 154 153 155 153 143 150 172 195 206 222 232 235 194 248 239 269 283 330 336
268 271 264 269 353 107 340 320 337 38 21 28 1 340 358 307 23 284 248 173 163 169 168 157 157 149 148 149 147 141 149 164 183 182 202 238 247 260 248 269 259 64 67 134